FW5225 Weather Reports


time (UTC)temp
F
wind
direction
speed
knots
gust
knots
rain 1hr
in
rain 24hr
in
rain mn
in
humidity
%
barometer
mb
20260507010024 83 151 1.7 8.7 0.00 0.00 0.00 18 1010.1
20260507005517 84 213 1.7 6.1 0.00 0.00 0.00 18 1010.2
20260507005016 84 190 1.7 5.2 0.00 0.00 0.00 18 1010.1
20260507004516 84 184 1.7 6.1 0.00 0.00 0.00 18 1010.2
20260507004015 84 260 2.6 6.1 0.00 0.00 0.00 17 1010.2
20260507003515 85 173 0.9 6.1 0.00 0.00 0.00 18 1010.1
20260507003015 85 211 2.6 6.1 0.00 0.00 0.00 17 1010.2
20260507002514 85 213 1.7 5.2 0.00 0.00 0.00 18 1010.2
20260507002014 85 205 0.9 7.0 0.00 0.00 0.00 17 1010.1
20260507001515 85 222 1.7 7.8 0.00 0.00 0.00 18 1010.1
20260507001013 85 198 1.7 7.8 0.00 0.00 0.00 17 1010.1
20260507000513 85 203 1.7 6.1 0.00 0.00 0.00 18 1010.0
20260507000018 86 224 1.7 6.1 0.00 0.00 0.00 18 1010.2
20260506235513 86 257 0.9 5.2 0.00 0.00 0.00 17 1010.1
20260506235011 86 183 1.7 6.1 0.00 0.00 0.00 17 1010.2
20260506234511 86 171 0.9 6.1 0.00 0.00 0.00 18 1010.2
20260506234011 86 95 0.0 7.0 0.00 0.00 0.00 18 1010.3
20260506233511 86 203 1.7 7.0 0.00 0.00 0.00 17 1010.2
20260506233010 86 180 0.9 6.1 0.00 0.00 0.00 18 1010.2
20260506232511 86 310 1.7 6.1 0.00 0.00 0.00 18 1010.4
20260506232009 86 141 1.7 7.0 0.00 0.00 0.00 18 1010.4
20260506231510 86 210 1.7 7.0 0.00 0.00 0.00 18 1010.4
20260506231008 86 167 0.9 7.0 0.00 0.00 0.00 18 1010.5
20260506230507 86 225 1.7 4.3 0.00 0.00 0.00 18 1010.6
20260506230007 86 182 1.7 4.3 0.00 0.00 0.00 18 1010.7
20260506225506 86 251 1.7 7.8 0.00 0.00 0.00 18 1010.7
20260506225006 86 155 1.7 8.7 0.00 0.00 0.00 18 1010.7
20260506224505 86 250 1.7 7.8 0.00 0.00 0.00 18 1010.8
20260506224004 86 179 1.7 7.8 0.00 0.00 0.00 18 1010.8
20260506223503 86 175 0.9 4.3 0.00 0.00 0.00 18 1010.9
20260506223002 85 240 0.9 5.2 0.00 0.00 0.00 18 1010.9
20260506222502 85 192 0.9 7.0 0.00 0.00 0.00 18 1011.0
20260506222002 85 228 0.9 5.2 0.00 0.00 0.00 18 1011.1
20260506221504 85 229 1.7 5.2 0.00 0.00 0.00 18 1011.2
20260506221002 86 166 1.7 5.2 0.00 0.00 0.00 19 1011.3
20260506220501 86 298 0.9 5.2 0.00 0.00 0.00 18 1011.3
20260506220101 86 190 1.7 8.7 0.00 0.00 0.00 18 1011.4
20260506215600 86 213 0.9 8.7 0.00 0.00 0.00 19 1011.4
20260506215058 85 144 1.7 7.8 0.00 0.00 0.00 19 1011.4
20260506214601 85 128 1.7 7.8 0.00 0.00 0.00 20 1011.6
20260506214057 85 171 2.6 7.8 0.00 0.00 0.00 20 1011.7
20260506213559 85 226 0.9 7.0 0.00 0.00 0.00 20 1011.8
20260506213059 84 251 2.6 7.0 0.00 0.00 0.00 20 1011.9
20260506212555 84 213 0.9 5.2 0.00 0.00 0.00 20 1012.0
20260506212055 84 184 1.7 5.2 0.00 0.00 0.00 21 1012.1
20260506211556 84 226 0.9 4.3 0.00 0.00 0.00 21 1012.2
20260506211055 83 234 0.9 4.3 0.00 0.00 0.00 21 1012.3
20260506210554 84 273 0.9 6.1 0.00 0.00 0.00 20 1012.4
20260506210054 84 134 1.7 6.1 0.00 0.00 0.00 22 1012.5
20260506205553 84 184 1.7 6.1 0.00 0.00 0.00 22 1012.5
20260506205052 84 182 1.7 6.1 0.00 0.00 0.00 20 1012.7
20260506204552 84 115 2.6 6.1 0.00 0.00 0.00 20 1012.7
20260506204050 83 183 0.9 5.2 0.00 0.00 0.00 21 1012.7
20260506203549 82 173 0.0 5.2 0.00 0.00 0.00 21 1012.8
20260506203049 81 229 0.0 4.3 0.00 0.00 0.00 22 1012.8
20260506202549 82 106 0.9 7.8 0.00 0.00 0.00 22 1012.8
20260506202049 82 274 3.5 7.8 0.00 0.00 0.00 21 1013.0
20260506201550 82 205 0.9 4.3 0.00 0.00 0.00 22 1013.0
20260506201048 82 115 1.7 4.3 0.00 0.00 0.00 21 1013.1
20260506200545 81 263 0.0 5.2 0.00 0.00 0.00 22 1013.1
20260506200046 80 198 0.9 5.2 0.00 0.00 0.00 23 1013.2
20260506195546 81 119 0.9 4.3 0.00 0.00 0.00 21 1013.3
20260506195045 81 284 1.7 4.3 0.00 0.00 0.00 22 1013.3
20260506194545 81 278 0.0 6.1 0.00 0.00 0.00 22 1013.3
20260506194044 80 167 1.7 6.1 0.00 0.00 0.00 23 1013.3
20260506193542 79 164 0.9 7.0 0.00 0.00 0.00 23 1013.4
20260506193050 80 288 3.5 8.7 0.00 0.00 0.00 22 1013.4
20260506192543 81 286 2.6 7.0 0.00 0.00 0.00 22 1013.5
20260506192042 81 268 0.9 4.3 0.00 0.00 0.00 22 1013.5
20260506191542 81 232 0.0 4.3 0.00 0.00 0.00 23 1013.7
20260506191046 81 161 1.7 5.2 0.00 0.00 0.00 22 1013.7
20260506190541 81 222 1.7 5.2 0.00 0.00 0.00 23 1013.8
20260506190040 80 146 1.7 4.3 0.00 0.00 0.00 22 1013.8
20260506185540 80 115 0.9 5.2 0.00 0.00 0.00 22 1013.9
20260506185038 80 140 0.9 5.2 0.00 0.00 0.00 23 1013.9
20260506184539 80 264 1.7 4.3 0.00 0.00 0.00 23 1013.9
20260506184036 80 193 0.9 5.2 0.00 0.00 0.00 23 1014.0
20260506183535 80 183 0.9 5.2 0.00 0.00 0.00 23 1014.0
20260506183033 80 304 0.9 5.2 0.00 0.00 0.00 23 1014.1
20260506182533 80 163 0.9 5.2 0.00 0.00 0.00 23 1014.2
20260506182032 79 184 1.7 5.2 0.00 0.00 0.00 23 1014.2
20260506181541 80 278 1.7 5.2 0.00 0.00 0.00 22 1014.2
20260506181030 80 94 1.7 5.2 0.00 0.00 0.00 22 1014.3
20260506180529 80 236 1.7 4.3 0.00 0.00 0.00 23 1014.3
20260506180028 80 200 0.9 5.2 0.00 0.00 0.00 22 1014.4
20260506175529 79 159 2.6 5.2 0.00 0.00 0.00 22 1014.3
20260506175025 79 219 0.9 4.3 0.00 0.00 0.00 23 1014.3
20260506174526 79 190 0.9 5.2 0.00 0.00 0.00 24 1014.3
20260506174026 78 191 1.7 5.2 0.00 0.00 0.00 24 1014.3
20260506173525 78 218 1.7 4.3 0.00 0.00 0.00 25 1014.4
20260506173031 78 209 1.7 4.3 0.00 0.00 0.00 25 1014.3
20260506172519 78 221 0.9 5.2 0.00 0.00 0.00 26 1014.3
20260506172017 77 167 1.7 6.1 0.00 0.00 0.00 26 1014.3
20260506171519 77 153 1.7 4.3 0.00 0.00 0.00 25 1014.3
20260506171017 77 177 0.0 5.2 0.00 0.00 0.00 26 1014.3
20260506170514 77 92 0.9 5.2 0.00 0.00 0.00 25 1014.3
20260506170012 77 152 0.9 4.3 0.00 0.00 0.00 27 1014.3
20260506165515 76 143 0.9 4.3 0.00 0.00 0.00 27 1014.3
20260506165010 75 92 0.9 4.3 0.00 0.00 0.00 26 1014.3
20260506164510 75 188 0.9 3.5 0.00 0.00 0.00 27 1014.3
20260506164006 74 204 1.7 3.5 0.00 0.00 0.00 27 1014.3
20260506163505 74 155 1.7 4.3 0.00 0.00 0.00 28 1014.3
20260506163009 74 102 0.9 4.3 0.00 0.00 0.00 28 1014.3
20260506162503 74 57 0.0 3.5 0.00 0.00 0.00 28 1014.3
20260506162002 73 181 0.9 3.5 0.00 0.00 0.00 29 1014.3
20260506161600 72 217 0.9 3.5 0.00 0.00 0.00 30 1014.2
20260506161058 71 148 0.0 7.0 0.00 0.00 0.00 30 1014.2
20260506160557 71 101 3.5 5.2 0.00 0.00 0.00 32 1014.1
20260506160056 70 74 0.9 4.3 0.00 0.00 0.00 34 1014.2
20260506155558 70 35 1.7 4.3 0.00 0.00 0.00 33 1014.2
20260506155057 70 115 0.9 4.3 0.00 0.00 0.00 34 1014.3
20260506154609 70 51 1.7 5.2 0.00 0.00 0.00 34 1014.2
20260506154051 70 52 1.7 6.1 0.00 0.00 0.00 33 1014.3
20260506153550 71 12 1.7 6.1 0.00 0.00 0.00 31 1014.3
20260506153049 71 11 1.7 4.3 0.00 0.00 0.00 32 1014.3
20260506152547 71 32 0.0 5.2 0.00 0.00 0.00 32 1014.3
20260506152045 71 89 0.9 3.5 0.00 0.00 0.00 31 1014.3
20260506151544 71 76 0.9 2.6 0.00 0.00 0.00 31 1014.3
20260506151043 70 151 0.0 1.7 0.00 0.00 0.00 32 1014.3
20260506150541 70 115 0.0 1.7 0.00 0.00 0.00 33 1014.3
20260506150040 69 136 0.0 0.9 0.00 0.00 0.00 34 1014.2
20260506145540 68 148 0.0 1.7 0.00 0.00 0.00 35 1014.2
20260506145038 68 124 0.0 1.7 0.00 0.00 0.00 34 1014.2
20260506144542 67 158 0.0 1.7 0.00 0.00 0.00 36 1014.2
20260506144034 66 240 0.0 1.7 0.00 0.00 0.00 37 1014.2
20260506143533 65 166 0.0 1.7 0.00 0.00 0.00 38 1014.1